• Processing (Info)

  • MPEC 2023-P58 : 2023 PS

    The following Minor Planet Electronic Circular may be linked-to from your own Web pages, but must not otherwise be redistributed electronically.

    A form allowing access to any MPEC is at the bottom of this page.


    Read MPEC 2023-P57 Read MPEC 2023-P59


    M.P.E.C. 2023-P58                               Issued 2023 August 11, 22:37 UT
    
         The Minor Planet Electronic Circulars contain information on unusual
             minor planets, routine data on comets and natural satellites,
             and occasional editorial announcements.  They are published
        on behalf of Division F of the International Astronomical Union by the
              Minor Planet Center, Smithsonian Astrophysical Observatory,
                              Cambridge, MA 02138, U.S.A.
    			  
                 Prepared using the Tamkin Foundation Computer Network
    
                                  MPC@CFA.HARVARD.EDU
                URL https://www.minorplanetcenter.net/    ISSN 1523-6714
    
                                     2023 PS                                 
    
    
    Observations:
         K23P00S* C2023 08 10.93019520 57 02.35 +08 57 31.0          19.4 RoEP058K88
         K23P00S  C2023 08 10.93265720 57 06.43 +08 57 37.0          19.6 RoEP058K88
         K23P00S KC2023 08 10.94754020 57 31.34 +08 58 13.8          19.4 RoEP058K88
         K23P00S KC2023 08 10.95000620 57 35.37 +08 58 20.7          19.4 RoEP058K88
         K23P00S KC2023 08 10.95247020 57 39.57 +08 58 25.8          19.6 RoEP058K88
         K23P00S KC2023 08 10.95993720 57 51.99 +08 58 45.2          19.4 RoEP058K88
         K23P00S KC2023 08 10.96166320 57 54.90 +08 58 49.4          19.3 RoEP058K88
         K23P00S KC2023 08 10.96863520 58 06.54 +08 59 06.5          19.5 RoEP058K88
         K23P00S KB2023 08 10.96989520 58 14.49 +08 59 27.0          19.9 GXEP058I93
         K23P00S KC2023 08 10.97055920 58 09.79 +08 59 11.3          19.5 RoEP058K88
         K23P00S KB2023 08 10.97180220 58 17.68 +08 59 31.7                XEP058I93
         K23P00S KB2023 08 10.97364720 58 20.79 +08 59 36.3          19.7 GXEP058I93
         K23P00S KB2023 08 10.97549320 58 23.88 +08 59 41.3          19.6 GXEP058I93
         K23P00S KC2023 08 10.99981520 59 00.70 +09 00 37.2          19.6 GXEP058L01
         K23P00S KC2023 08 11.00123320 59 03.12 +09 00 40.7          19.8 GXEP058L01
         K23P00S KC2023 08 11.00264320 59 05.49 +09 00 44.5          18.8 GXEP058L01
         K23P00S KC2023 08 11.00326 20 59 05.61 +09 00 24.6          19.1 GXEP058G02
         K23P00S KC2023 08 11.00405820 59 07.88 +09 00 47.3          19.3 GXEP058L01
         K23P00S 1C2023 08 11.00525 20 59 11.03 +09 00 23.5          19.6 VXEP058033
         K23P00S KC2023 08 11.00537620 59 10.13 +09 00 51.0          18.8 GXEP058L01
         K23P00S 1C2023 08 11.00559 20 59 11.62 +09 00 24.4          19.6 VXEP058033
         K23P00S 1C2023 08 11.00593 20 59 12.20 +09 00 25.1          19.7 VXEP058033
         K23P00S 1C2023 08 11.00631 20 59 12.85 +09 00 26.1          19.8 VXEP058033
         K23P00S KC2023 08 11.00761 20 59 13.12 +09 00 35.7          18.8 GXEP058G02
         K23P00S KC2023 08 11.01195 20 59 20.47 +09 00 45.6          18.9 GXEP058G02
         K23P00S KC2023 08 11.11155321 02 42.96 +09 05 40.8          20.4 VuEP058H21
         K23P00S KC2023 08 11.11348221 02 46.36 +09 05 46.1          20.4 VuEP058H21
         K23P00S KC2023 08 11.11541021 02 49.75 +09 05 51.6          19.6 VuEP058H21
         K23P00S KC2023 08 11.11637421 02 51.43 +09 05 54.3          19.9 VuEP058H21
         K23P00S KB2023 08 11.14067 21 03 36.58 +09 06 59.2          19.3 rZEP058H36
         K23P00S KB2023 08 11.14456 21 03 43.52 +09 07 10.1          19.6 rZEP058H36
         K23P00S KB2023 08 11.14845 21 03 50.41 +09 07 20.3          19.4 rZEP058H36
         K23P00S KC2023 08 11.19677321 05 09.83 +09 09 23.2                XEP058W62
         K23P00S KC2023 08 11.20283221 05 20.60 +09 09 38.7          19.1 GXEP058W62
         K23P00S KC2023 08 11.20887521 05 31.39 +09 09 54.1                XEP058W62
         K23P00S 1C2023 08 11.83059921 27 12.450+09 34 52.80               VEP058246
         K23P00S 1C2023 08 11.83082621 27 13.070+09 34 53.80               VEP058246
         K23P00S 1C2023 08 11.83105221 27 13.560+09 34 54.10               VEP058246
         K23P00S 1C2023 08 11.83127921 27 13.980+09 34 54.60               VEP058246
         K23P00S 1C2023 08 11.83150521 27 14.410+09 34 55.50               VEP058246
         K23P00S 1C2023 08 11.83565021 27 23.610+09 35 06.40               VEP058246
         K23P00S 1C2023 08 11.83591121 27 24.060+09 35 07.10               VEP058246
         K23P00S 1C2023 08 11.83643321 27 25.220+09 35 09.10               VEP058246
         K23P00S 1C2023 08 11.83669421 27 25.820+09 35 09.30               VEP058246
         K23P00S 1C2023 08 11.83721621 27 27.020+09 35 11.20               VEP058246
         K23P00S KB2023 08 11.84216 21 27 38.50 +09 35 39.2          19.5 RZEP058106
         K23P00S KB2023 08 11.84478 21 27 44.20 +09 35 46.0          19.0 RZEP058106
         K23P00S KB2023 08 11.84751 21 27 50.12 +09 35 52.9          18.6 RZEP058106
         K23P00S KC2023 08 11.84792421 27 52.31 +09 35 54.1          19.1 GVEP058203
         K23P00S KB2023 08 11.85023 21 27 56.05 +09 36 00.2          19.2 RZEP058106
         K23P00S KC2023 08 11.85657 21 28 11.29 +09 36 24.8          18.4 GXEP058K78
         K23P00S KC2023 08 11.86015821 28 19.02 +09 36 26.2          19.1 GVEP058203
         K23P00S KC2023 08 11.86338 21 28 26.15 +09 36 42.1          18.1 GXEP058K78
         K23P00S KC2023 08 11.87018 21 28 40.98 +09 37 00.5          18.3 GXEP058K78
         K23P00S KC2023 08 11.87202021 28 44.89 +09 36 57.4                VEP058203
         K23P00S KC2023 08 11.89402021 29 36.12 +09 38 00.9          18.4 GXEP058958
         K23P00S KC2023 08 11.90518521 30 00.67 +09 38 27.4          19.2 GXEP058958
         K23P00S KC2023 08 11.91454 21 30 17.58 +09 38 55.1          19.3 GVEP058104
         K23P00S KC2023 08 11.91793 21 30 25.00 +09 39 04.1          19.2 GVEP058104
         K23P00S 1C2023 08 11.92063 21 30 29.78 +09 38 32.7          19.7 VXEP058033
         K23P00S 1C2023 08 11.92091 21 30 30.40 +09 38 33.4          19.5 VXEP058033
         K23P00S 1C2023 08 11.92120 21 30 31.03 +09 38 34.2          19.5 VXEP058033
         K23P00S KC2023 08 11.92133 21 30 32.44 +09 39 12.3          19.2 GVEP058104
    
    Observer details:
    033 Karl Schwarzschild Observatory, Tautenburg.  Observers S. Melnikov, C.
        Hoegner, F. Ludwig, B. Stecklum.  Measurer B. Stecklum.  1.34-m f/3
        Schmidt + CCD.
    104 San Marcello Pistoiese.  Observers P. Bacci, M. Maestripieri.  Measurers
        P. Bacci, L. Tesi, G. Fagioli.  0.60-m F4 Reflector + CCD.
    106 Crni Vrh.  Observer H. Mikuz.  0.60-m f/3.3 reflector + CMO.
    203 GiaGa Observatory.  Observers S. Foglia, G. Galli.  Measurer G. Galli.
        0.36-m f/5.76 Schmidt-Cassegrain + CCD.
    246 Klet Observatory-KLENOT.  Observers M. Tichy, J. Ticha, M. Janda, M.
        Honkova.  Measurer M. Tichy.  1.06-m f/2.7 Reflector + 2048x2048 CCD.
    958 Observatoire de Dax.  Observers P. Dupouy, J. B. de Vanssay.  Measurer P.
        Dupouy.  0.43-m f/2.7 Reflector + CCD.
    G02 KYSUCE Observatory, Kysucke Nove Mesto.  Observer M. Urbanik.  0.40-m
        f/6.8 Corrected Dall-Kirkham + CCD.
    H21 Astronomical Research Observatory, Westfield.  Observer R. Holmes.
        Measurers T. Linder, R. Holmes, L. Horn.  0.76-m f/3.0 astrograph + CCD.
    H36 Sandlot Observatory, Scranton.  Observer G. Hug.  0.56-m f/4.8 reflector +
        CMO.
    I93 St Pardon de Conques.  Observer F. Losse.  0.40-m f/3.7 reflector + CMO.
    K78 iota Scorpii Observatory, La Spezia.  Observers G. Scarfi, P. Boongerd.
        reflector + CCD.
    K88 GINOP-KHK, Piszkesteto.  Observer K. Sarneczky.  0.60-m Schmidt + CCD.
    L01 Visnjan Observatory, Tican.  Observers K. Korlevic, P. Dusevic, I.
        Forkapa, L. Gelo, L. Ilisevic, I. Paleka, E. Pettarin, V. Srdic.  Measurer
        I. Paleka.  1.0-m f/2.9 reflector + CCD.
    W62 Comet Hunter Observatory2, New Ringgold.  Observer J. Maikner.  0.30-m
        f/3.8 Riccardi-Honders + CCD.
    
    Orbital elements:
    2023 PS                                                  Earth MOID = 0.0067 AU
    Epoch 2023 Sept. 13.0 TT = JDT 2460200.5                Veres                   
    M   3.75555              (2000.0)            P               Q                  
    n   0.39773983     Peri.  201.60011     +0.96555550     +0.25339674             
    a   1.8312037      Node   143.55892     -0.22178025     +0.92026732             
    e   0.4541036      Incl.    5.71001     -0.13607386     +0.29815794             
    P   2.48           H   26.52          G   0.15           U   8                  
    Residuals in seconds of arc
    230810 K88  0.6-  0.2+    230811 033  0.1+  0.5-    230811 246  0.5-  0.5+
    230810 K88  0.7-  0.0     230811 033  0.1+  0.4-    230811 246  0.0   0.1+
    230810 K88  1.2+  0.6-    230811 G02  0.7+  0.2-    230811 246  0.9+  0.6+
    230810 K88  0.1-  0.1+    230811 G02  0.4-  0.8-    230811 106  0.0   0.2+
    230810 K88  1.1+  1.0-    230811 H21  0.3+  0.3+    230811 106  0.1+  0.1+
    230810 K88  0.0   0.2-    230811 H21  0.2+  0.3+    230811 106  0.2-  0.2-
    230810 K88  0.2+  0.3-    230811 H21  0.1-  0.5+    230811 203  0.1-  0.7+
    230810 K88  0.7-  0.5-    230811 H21  0.5-  0.6+    230811 106  0.0   0.1-
    230810 I93  0.3-  0.2-    230811 H36  0.0   0.4-    230811 K78  0.4-  0.2+
    230810 K88  0.5-  0.5-    230811 H36  0.3+  0.1-    230811 203  0.0   0.5+
    230810 I93  0.3-  0.4-    230811 H36  0.0   0.5-    230811 K78  0.1-  0.5-
    230810 I93  0.0   0.5-    230811 W62  0.3+  0.3-    230811 K78  0.0   0.1+
    230810 I93  0.1-  0.2-    230811 W62  0.2+  0.2-    230811 203  0.4-  0.5+
    230810 L01  0.0   0.5-    230811 W62  0.6+  0.2-    230811 958  0.0   1.7+
    230811 L01  0.3+  0.5-    230811 246  1.4-  0.4-    230811 958  0.1+  1.0-
    230811 L01  0.0   0.2-    230811 246  0.5+  0.0     230811 104  0.1+  0.4-
    230811 G02  0.6-  0.7-    230811 246  0.4+  0.3-    230811 104  0.1+  0.1+
    230811 L01  0.1-  0.8-    230811 246  0.7-  0.4-    230811 033  0.0   0.1+
    230811 033  0.1-  0.4-    230811 246  1.6-  0.1-    230811 033  0.1+  0.0
    230811 L01  0.1+  0.4-    230811 246  1.0+  0.1-    230811 033  0.1-  0.1+
    230811 033  0.1+  0.3-    230811 246  0.8-  0.1-    230811 104  0.0   0.3-
    
    Ephemeris:
    2023 PS                  a,e,i = 1.83, 0.45, 6                   q = 0.9996
    Date    TT    R. A. (2000) Decl.     Delta      r    Elong.  Phase     V
    2023 07 12    18 39 52.7 +01 15 51   0.1637  1.1665   154.4    22.1    24.0
    ...
    2023 07 27    18 51 39.9 +03 51 22   0.08893 1.0918   147.7    29.8    22.8
    ...
    2023 08 04    19 19 43.8 +05 39 09   0.05254 1.0592   147.2    31.3    21.6
    ...
    2023 08 10    20 32 53.6 +08 22 49   0.02787 1.0388   153.5    25.8    20.0
    2023 08 11    20 59 04.9 +09 04 09   0.02440 1.0358   154.8    24.6    19.7
    2023 08 12    21 33 26.8 +09 46 12   0.02135 1.0329   154.9    24.6    19.4
    ...
    2023 08 18    02 46 06.2 +05 39 54   0.02209 1.0178   103.4    75.4    20.9
    ...
    2023 08 26    04 50 15.5 +00 10 00   0.05272 1.0046    81.7    95.3    23.5
    ...
    2023 09 10    05 34 30.3 -01 41 29   0.1154  1.0024    84.3    89.1    25.0
    
    M. P. C. Staff               (C) Copyright 2023 MPC           M.P.E.C. 2023-P58
    


    Read MPEC 2023-P57 Read MPEC 2023-P59


    MPEC number:

    Enter an MPEC number in one of the following forms:

    • 1997-B01 (the full form)
    • J97B01 (the packed version of the full form)
    • B01 (the abbreviated form)